Carbondale, IL

7:23 PM CDT on August 23, 2017 (GMT -0500)
Southern Illinois

Weather History for KMDH - March, 2013

Change the Weather History Date:

Sunday, March 31, 2013

  Actual Average Record
Temperature  
Mean Temperature 58 °F -  
Max Temperature 68 °F 60 °F 83 °F (1940)
Min Temperature 48 °F 40 °F 18 °F (1923)
Degree Days  
Heating Degree Days 7    
Growing Degree Days 8 (Base 50)    
Moisture  
Dew Point 46 °F    
Average Humidity 81    
Maximum Humidity 100    
Minimum Humidity 37    
Precipitation  
Precipitation 0.00 in - - ()
Sea Level Pressure  
Sea Level Pressure 29.90 in    
Wind  
Wind Speed 3 mph (WSW)    
Max Wind Speed 10 mph    
Max Gust Speed -    
Visibility 6 miles    
Events      
Averages and records for this station are not official NWS values.
T = Trace of Precipitation, MM = Missing Value Source: NWS Daily Summary

Daily Weather History Graph

Daily Weather History Graph

Search for Another Location

Airport or City:

Trip Planner

Search our weather history database for the weather conditions in past years. The results will help you decide how hot, cold, wet, or windy it might be!

Date:

Astronomy

Mar. 31, 2013 Rise Set
Actual Time 6:43 AM CDT 7:19 PM CDT
Civil Twilight 6:17 AM CDT 7:45 PM CDT
Nautical Twilight 5:45 AM CDT 8:16 PM CDT
Astronomical Twilight 5:14 AM CDT 8:48 PM CDT
Moon No Moon Rise 9:35 AM CDT (3/31)
Length of Visible Light 13h 28m
Length of Day
12h 35m
Waning Gibbous, 77% of the Moon is Illuminated
Mar 31
Waning Gibbous
Apr 2
Last Quarter
Apr 10
New
Apr 18
First Quarter
Apr 25
Full

Hourly Weather History & Observations

Time (CDT) Temp. Dew Point Humidity Pressure Visibility Wind Dir Wind Speed Gust Speed Precip Events Conditions
12:05 AM 48.2 °F 46.4 °F 93% 29.92 in 1.5 mi Calm Calm - N/A   Overcast
12:37 AM 48.2 °F 46.4 °F 93% 29.92 in 2.0 mi SSW 4.6 mph - N/A   Overcast
12:47 AM 48.2 °F 46.4 °F 93% 29.92 in 3.0 mi South 5.8 mph - N/A   Overcast
12:52 AM 48.0 °F 46.9 °F 96% 29.92 in 3.0 mi SSW 4.6 mph - N/A   Overcast
1:35 AM 48.2 °F 46.4 °F 93% 29.91 in 3.0 mi South 4.6 mph - N/A   Overcast
1:43 AM 48.2 °F 46.4 °F 93% 29.90 in 2.5 mi South 3.5 mph - N/A   Overcast
1:52 AM 48.0 °F 46.9 °F 96% 29.91 in 2.0 mi Calm Calm - N/A   Overcast
2:52 AM 48.0 °F 46.9 °F 96% 29.89 in 2.5 mi WSW 3.5 mph - N/A   Overcast
3:09 AM 48.2 °F 48.2 °F 100% 29.89 in 3.0 mi Calm Calm - N/A   Overcast
3:52 AM 48.9 °F 48.0 °F 97% 29.89 in 4.0 mi West 4.6 mph - N/A   Overcast
4:33 AM 48.2 °F 48.2 °F 100% 29.88 in 4.0 mi WNW 3.5 mph - N/A   Overcast
4:52 AM 48.9 °F 48.0 °F 97% 29.87 in 3.0 mi Calm Calm - N/A   Overcast
5:52 AM 48.0 °F 46.9 °F 96% 29.89 in 2.5 mi West 3.5 mph - N/A   Overcast
6:30 AM 48.2 °F 46.4 °F 93% 29.89 in 3.0 mi West 3.5 mph - N/A   Overcast
6:52 AM 48.0 °F 46.9 °F 96% 29.89 in 3.0 mi SW 4.6 mph - N/A   Overcast
7:01 AM 48.2 °F 48.2 °F 100% 29.89 in 2.5 mi SSW 4.6 mph - N/A   Overcast
7:52 AM 48.9 °F 48.0 °F 97% 29.93 in 2.0 mi West 4.6 mph - N/A   Overcast
8:06 AM 48.2 °F 48.2 °F 100% 29.92 in 2.5 mi Calm Calm - N/A   Overcast
8:34 AM 50.0 °F 48.2 °F 94% 29.93 in 3.0 mi West 3.5 mph - N/A   Overcast
8:52 AM 50.0 °F 48.0 °F 93% 29.94 in 3.0 mi Calm Calm - N/A   Overcast
9:41 AM 51.8 °F 46.4 °F 82% 29.94 in 5.0 mi NW 4.6 mph - N/A   Overcast
9:52 AM 51.1 °F 48.0 °F 89% 29.95 in 5.0 mi Calm Calm - N/A   Overcast
10:52 AM 52.0 °F 48.0 °F 86% 29.92 in 6.0 mi South 6.9 mph - N/A   Scattered Clouds
11:32 AM 55.4 °F 48.2 °F 77% 29.92 in 7.0 mi North 3.5 mph - N/A   Mostly Cloudy
11:52 AM 55.9 °F 48.0 °F 75% 29.91 in 8.0 mi Calm Calm - N/A   Mostly Cloudy
12:18 PM 57.2 °F 48.2 °F 72% 29.90 in 8.0 mi Calm Calm - N/A   Scattered Clouds
12:28 PM 57.2 °F 48.2 °F 72% 29.90 in 9.0 mi Calm Calm - N/A   Mostly Cloudy
12:35 PM 57.2 °F 48.2 °F 72% 29.90 in 9.0 mi Calm Calm - N/A   Partly Cloudy
12:52 PM 57.9 °F 50.0 °F 75% 29.91 in 9.0 mi WSW 3.5 mph - N/A   Clear
1:52 PM 62.1 °F 46.0 °F 56% 29.90 in 10.0 mi Calm Calm - N/A   Clear
2:52 PM 63.0 °F 45.0 °F 52% 29.88 in 10.0 mi WSW 6.9 mph - N/A   Mostly Cloudy
3:52 PM 66.9 °F 44.1 °F 44% 29.86 in 10.0 mi NNW 10.4 mph - N/A   Clear
4:52 PM 68.0 °F 41.0 °F 37% 29.86 in 10.0 mi NW 6.9 mph - N/A   Partly Cloudy
5:52 PM 64.9 °F 44.1 °F 47% 29.85 in 10.0 mi WSW 8.1 mph - N/A   Clear
6:52 PM 63.0 °F 42.1 °F 46% 29.85 in 10.0 mi North 5.8 mph - N/A   Clear
7:52 PM 60.1 °F 42.1 °F 51% 29.87 in 10.0 mi Calm Calm - N/A   Clear
8:52 PM 53.1 °F 42.1 °F 66% 29.88 in 10.0 mi SSW 4.6 mph - N/A   Clear
9:52 PM 54.0 °F 45.0 °F 72% 29.90 in 10.0 mi SW 6.9 mph - N/A   Clear
10:52 PM 52.0 °F 45.0 °F 77% 29.91 in 10.0 mi North 4.6 mph - N/A   Clear
11:52 PM 50.0 °F 44.1 °F 80% 29.92 in 10.0 mi SW 4.6 mph - N/A   Mostly Cloudy